DELTA 1 DEB, 7068

Orbit data source: Space-Track

DELTA 1 DEB, 7068 is space debris in SSO originally from a launch on Tue, 06 Nov 1973 UTC launched from the Air Force Western Test Range (AFWTR). Debris objects in space refer to the collection of defunct objects orbiting the Earth. Examples of debris include non-operational satellites, rocket bodies, and fragments generated from explosions, collisions, or faulty payload assembly.

Loading next visibility...
Identifier
7068, 1973-086BL
Orbit
SSO
Country
Flag of USUS
Related business
Manufacturer
Unknown
Mission
Spacecraft
Bus & Motor
Unknown
Mass
Unknown
Launch date (UTC)
1973-11-06 (53 years ago)
Launch vehicle
Unknown
Launch site
Air Force Western Test Range (AFWTR)
Object type
Payload
Rocket body
Debris
Shape & HBR
Unknown shape, 0.1 m
Radar Cross Section
Medium (>0.1 m² and <1 m²)

Expand to show TLE details & history
Last TLE update: 2 days ago

TLE from 2 days ago
0 DELTA 1 DEB
1 07068U 73086BL  26205.51274590 -.00000048  00000-0  13953-4 0  9991
2 07068 102.3876 191.8102 0215268  94.5383  29.7324 12.81704730463517
Epoch: 2026-07-24T12:18Z
TLE epoch observation values (Epoch: 2026-07-24T12:18:21.245Z)
Latitude
52.74789°
Longitude
-98.31741°
Altitude
1,199.692 km
Speed
7.326 km/s
True Right ascension
01h 54m 02s
True Declination
52° 35' 30"
Sunlit
Object was in daylight at epoch
Visualization orbit readout
Latitude
Unknown
Longitude
Unknown
Altitude
Unknown
Speed
Unknown
Apparent Right ascension
Unknown
Apparent Declination
Unknown
Sunlit
N/A
Visualization observer readout
Local Sidereal Time
21:18:18
Azimuth
Unknown
Elevation
Unknown
Doppler factor
Unknown
Orbital elements
Apogee altitude
1,498.144 km
Perigee altitude
1,166.188 km
Semi-major axis
7,710.303 km
Eccentricity
0.02153
Inclination
102.3876°
RAAN
191.8102°
Arg. of periapsis
94.5383°
True anomaly
30.98494°
Mean anomaly
29.7324°
Eccentric anomaly
30.35572°
Mean motion
3.2058 °/min
Orbital period
112.3 mins
BSTAR
0.000013953
Loading maneuver chart data...
Computing Atmospheric mass density...
Loading historical data...
Loading historical data...
Loading historical data...
Loading historical data...
Loading historical data...
Loading historical data...
Loading historical data...

Documentation

Showing up to 5 results
|